Regional Weather Roundup
Issued by NWS

Home | Current Version | Previous Version | Text Only | Print | Product List | Glossary On
Versions: 1 2 3 4 5 6 7 8 9 10 11 12 13 14 15 16 17 18 19 20 21 22 23 24 25 26 27 28 29 30 31 32 33 34 35 36 37 38 39 40 41 42 43 44 45 46 47 48 49 50
000
ASUS43 KMPX 220410
RWRMN
WEATHER ROUNDUP FOR MINNESOTA
NATIONAL WEATHER SERVICE TWIN CITIES/CHANHASSEN MN
1100 PM CDT MON MAY 21 2018


NOTE: "FAIR" INDICATES FEW OR NO CLOUDS BELOW 12,000 FEET WITH NO
SIGNIFICANT WEATHER AND/OR OBSTRUCTIONS TO VISIBILITY. N/A MEANS
CURRENT SKY AND/OR WEATHER CONDITIONS ARE NOT AVAILABLE.

MNZ060>063-068>070-220500-
   Twin Cities Metro

CITY           SKY/WX    TMP DP  RH WIND       PRES   REMARKS
TWIN CITIES    CLOUDY    59  55  87 SE7       30.00S
ST PAUL        CLOUDY    59  53  80 SE10      30.01S
CRYSTAL        CLOUDY    60  53  77 SE5       29.99R
BLAINE         FAIR      61  54  77 CALM      30.01R
LAKEVILLE      CLOUDY    55  54  94 SE5       30.00F
EDEN PRAIRIE   CLOUDY    59  53  80 SE7       29.99S
SOUTH ST PAUL  CLOUDY    58  54  84 S5        30.00S
LAKE ELMO      CLOUDY    59  54  82 SE3       30.02S
$$
MNZ001>005-007-008-013>017-022>024-027-028-220500-
   Northwest Minnesota

CITY           SKY/WX    TMP DP  RH WIND       PRES   REMARKS
BEMIDJI        FAIR      56  45  67 S5        30.00R
HALLOCK        FAIR      59  41  51 S8        29.93R
ROSEAU         FAIR      57  46  67 S7        29.96R
WARROAD        FAIR      59  45  58 S5        29.96S
THIEF RVR FALL FAIR      57  43  59 S5        29.97R
CROOKSTON      FAIR      61  46  59 S8        29.96S
FOSSTON        FAIR      55  41  58 S5        29.99R
DETROIT LAKES  FAIR      55  46  71 SE6       30.00S
MOORHEAD       FAIR      57  52  82 S8        29.98S
PARK RAPIDS    CLOUDY    57  42  57 S6        30.00S
MAHNOMEN       FAIR      55  47  75 S5        29.99R
$$
MNZ006-009>011-018-025>026-220500-
   North Central Minnesota

CITY           SKY/WX    TMP DP  RH WIND       PRES   REMARKS
BAUDETTE       FAIR      56  45  66 SW3       29.97R
FLAG ISLAND    FAIR      63  46  55 S3        29.94R
INTL FALLS     FAIR      54  41  61 SW5       29.97R
WASKISH        FAIR      55  43  62 CALM      29.98S
BIG FORK       FAIR      52  39  62 CALM      30.00S
LONGVILLE      CLOUDY    54  48  82 CALM      30.01S
GRAND RAPIDS   CLOUDY    55  45  68 CALM      30.03S
CRANE LAKE     FAIR      59  37  44 S3        30.00R
ORR            FAIR      55  36  47 CALM      29.98S
COOK           FAIR      52  39  62 CALM      30.01S
WALKER         MOCLDY    51  44  77 SE3       30.00S
$$
MNZ012-019>021-037-220500-
   Northeast Minnesota

CITY           SKY/WX    TMP DP  RH WIND       PRES   REMARKS
DULUTH         MOCLDY    56  39  53 N3        30.00S
ELY            FAIR      55  34  44 CALM      30.01R
HIBBING        MOCLDY    49  40  71 CALM      30.00S
EVELETH        FAIR      53  40  62 CALM      30.02S
DULUTH HARBOR  CLOUDY    52  43  71 CALM      30.02R
TWO HARBORS    FAIR      54  39  58 N3        29.99S
SILVER BAY     FAIR      48  36  61 CALM      29.99S
GRAND MARAIS     N/A     44  34  67 CALM      30.00F
G MARAIS ARPRT FAIR      43  34  70 CALM      30.02S
$$
MNZ029>031-032-039>041-046>048-054>057-064-220500-
   West Central Minnesota

CITY           SKY/WX    TMP DP  RH WIND       PRES   REMARKS
FERGUS FALLS   CLOUDY    61  52  72 SE7       29.96S
WHEATON        CLOUDY    57  54  88 SE8       30.00S
MORRIS         MOCLDY    59  55  88 SE6       29.99S FOG
ALEXANDRIA     CLOUDY    58  48  69 E5        30.01S
ELBOW LAKE     CLOUDY    57  54  87 SE6       30.00S
WADENA         CLOUDY    55  45  67 S3        30.00F
GLENWOOD       MOCLDY    55  50  82 E3        30.01S
APPLETON       CLOUDY    59  55  88 E3        29.99R FOG
BENSON         CLOUDY    57  55  94 CALM      30.01S FOG
ORTONVILLE     CLEAR     59  55  88 E5        29.99S FOG
MADISON        CLOUDY    63  61  94 E7        29.99S
WILLMAR        CLOUDY    57  55  94 NE5       30.02S
$$
MNZ033>034-036-042>043-049>051-058-059-220500-
   Central Minnesota

CITY           SKY/WX    TMP DP  RH WIND       PRES   REMARKS
ST CLOUD       CLOUDY    54  49  83 CALM      30.00S
SAUK CENTRE    CLOUDY    55  49  81 CALM      30.01F
PAYNESVILLE    CLOUDY    55  52  91 E3        30.02R
AITKIN         CLOUDY    52  48  87 CALM      30.00S
PINE RIVER     CLOUDY    52  43  71 CALM      30.04S
BRAINERD       CLOUDY    57  41  55 NW3       30.01S
STAPLES        CLOUDY    55  45  67 CALM      30.01S
LONG PRAIRIE   CLOUDY    54  48  82 CALM      30.01F
LITTLE FALLS     N/A    N/A N/A N/A CALM        N/A
LITCHFIELD     CLOUDY    57  55  94 CALM      30.01S
BUFFALO        FAIR      53  46  77 CALM      30.01S
MAPLE LAKE     FAIR      53  50  90 CALM      30.01S
HUTCHINSON     CLOUDY    58  54  86 CALM      30.02R
$$
MNZ037-044-045-052-053-220500-
   East Central Minnesota

CITY           SKY/WX    TMP DP  RH WIND       PRES   REMARKS
PRINCETON      CLOUDY    57  46  67 CALM      30.00F
MORA           CLOUDY    52  46  82 CALM      30.02S
CAMBRIDGE      CLOUDY    63  52  67 SE3       30.01R
RUSH CITY      CLOUDY    56  48  73 CALM      30.01S
MOOSE LAKE     CLOUDY    54  48  82 CALM      29.99S
HINCKLEY       CLOUDY    55  50  82 CALM      30.00F
CLOQUET        CLOUDY    54  45  71 CALM      30.01S
MCGREGOR       CLOUDY    54  50  87 CALM      30.01S
$$
MNZ071>073-080-081-089-090-097-098-220500-
   Southwest Minnesota

CITY           SKY/WX    TMP DP  RH WIND       PRES   REMARKS
MONTEVIDEO     PTCLDY    57  55  94 S5        30.00S FOG
GRANITE FALLS  CLOUDY    60  59  95 SE3       30.01S
CANBY          CLOUDY    62  59  91 CALM      30.00R
MARSHALL       MOCLDY    60  58  92 S5        30.00R
REDWOOD FALLS  FOG       59  59 100 NE5       29.99S VSB 3/4
OLIVIA         CLOUDY    57  54  88 NE5       30.00R
PIPESTONE      CLEAR     57  55  94 SE3       30.00S
WINDOM         PTCLDY    59  45  58 CALM      30.00R HAZE
WORTHINGTON    FOG       57  57 100 SE6       30.01S VSB 1/2
JACKSON        PTCLDY    55  55 100 E3        30.01R FOG
TRACY          MOCLDY    57  57 100 CALM      30.00S FOG
SLAYTON        FOG       56  56  99 CALM      30.01S VSB 3/4
$$
MNZ065>067-074>077-082>085-091>093-220500-
   South Central Minnesota

CITY           SKY/WX    TMP DP  RH WIND       PRES   REMARKS
MANKATO        CLOUDY    59  55  87 SE7       30.00S
NEW ULM        LGT RAIN  61  57  88 CALM      30.00S
ST JAMES       CLOUDY    61  59  94 CALM      30.00S FOG
FAIRMONT       MOCLDY    60  59  96 CALM      30.00F FOG
GLENCOE        MOCLDY    59  54  84 E5        30.00R
FARIBAULT      CLOUDY    57  54  88 CALM      30.01S
OWATONNA       CLOUDY    57  54  88 E6        30.01S
WASECA         CLOUDY    55  54  94 E5        30.01F
ALBERT LEA     CLOUDY    55  54  94 SE3       30.01S FOG
$$
MNZ078>079-086>088-094>096-220500-
   Southeast Minnesota

CITY           SKY/WX    TMP DP  RH WIND       PRES   REMARKS
ROCHESTER      CLOUDY    54  54 100 NE3       30.02S
RED WING       CLOUDY    57  54  88 CALM      30.00F
STANTON        CLOUDY    57  53  85 E3        30.00S
DODGE CENTER   CLOUDY    54  54 100 E5        30.01F FOG
WINONA         RAIN      55  55 100 CALM      29.99S
AUSTIN         CLOUDY    55  54  94 CALM      30.01S FOG
PRESTON        FOG       54  52  95 CALM      30.02S VSB 1
$$
ABBREVIATIONS USED IN REMARKS
   TC - TEMPERATURES IN CELSIUS
  WCI - WIND CHILL INDEX
   HX - HEAT INDEX
  VSB - VISIBILITY
$$



USA.gov is the U.S. government's official web portal to all federal, state and local government web resources and services.